Regional Weather Roundup
Issued by NWS

Home | Current Version | Previous Version | Graphics & Text | Print | Product List | Glossary On
Versions: 1 2 3 4 5 6 7 8 9 10 11 12 13 14 15 16 17 18 19 20 21 22 23 24 25 26 27 28 29 30 31 32 33 34 35 36 37 38 39 40 41 42 43 44 45 46 47 48 49 50
587
ASUS43 KDMX 071108
RWRIA

WEATHER ROUNDUP FOR IOWA
NATIONAL WEATHER SERVICE DES MOINES IA
500 AM CST SUN FEB 07 2016

NOTE: "FAIR" INDICATES FEW OR NO CLOUDS BELOW 12,000 FEET WITH NO
SIGNIFICANT WEATHER AND/OR OBSTRUCTIONS TO VISIBILITY.

* - THESE STATIONS ARE NOT NWS STATIONS...THUS NOT UNDER NWS
QUALITY CONTROL.  THEY ALSO DO NOT REPORT WEATHER SUCH
AS PRECIPITATION OR FOG.

IAZ001>003-012>014-020>022-031>034-043>046-071200-
   NORTHWEST IOWA

CITY           SKY/WX    TMP DP  RH WIND       PRES   REMARKS
CARROLL *      PTCLDY    34  27  75 W16       29.85R WCI  23
CHEROKEE *     CLEAR     36  28  75 NW15G23   29.85R WCI  26
DENISON *      CLEAR     32  27  80 W8        29.87R WCI  25
LE MARS *      CLEAR     37  16  41 W17       29.88S WCI  28
ORANGE CITY *  CLEAR     34  28  80 NW18      29.85R WCI  23
SHELDON *      CLEAR     34  28  80 W18       29.81S WCI  23
SIOUX CITY     CLEAR     40  26  57 NW20      29.89R WCI  30
SPENCER        CLEAR     32  24  72 W18       29.81S WCI  20
STORM LAKE *   CLEAR     36  30  80 NW21G28   29.84R WCI  24
$$

IAZ055>058-069>071-079>083-090>094-071200-
   SOUTHWEST IOWA

CITY           SKY/WX    TMP DP  RH WIND       PRES   REMARKS
ATLANTIC *     PTCLDY    32  27  80 W13       29.90S WCI  22
AUDUBON *      CLEAR     32  27  80 W5        29.89R WCI  27
CLARINDA *     CLEAR     34  30  86 SW5       29.96R WCI  30
COUNCIL BLFS * CLEAR     37  27  65 NW15      29.92S WCI  28
CRESTON *      CLEAR     32  28  86 W10       29.90S WCI  24
HARLAN  *      CLEAR     32  27  80 W16       29.93R WCI  21
LAMONI         CLOUDY    36  27  69 W14       29.90S WCI  27
RED OAK *      MOCLDY    32  30  93 W5        29.93S WCI  27
SHENANDOAH *   CLEAR     34  32  93 SW9       29.96R WCI  26
$$

IAZ047>049-059>061-072>074-084-071200-
   CENTRAL IOWA

CITY           SKY/WX    TMP DP  RH WIND       PRES   REMARKS
AMES           CLOUDY    34  28  79 W16       29.83S WCI  24
ANKENY *       CLOUDY    36  30  80 W10       29.85S WCI  28
BOONE *        CLOUDY    34  28  80 W15G21    29.82R WCI  24
CHARITON *     CLOUDY    36  28  75 W14       29.88R WCI  27
DES MOINES     CLOUDY    36  27  69 W12       29.86S WCI  28
GRINNELL*      CLOUDY    36  30  80 SW15      29.83R WCI  26
KNOXVILLE *    MOCLDY    36  28  75 SW16      29.85R WCI  26
MARSHALLTOWN   CLOUDY    35  28  75 W16       29.81R WCI  25
NEWTON *       CLOUDY    34  30  86 SW13      29.83S WCI  25
PELLA *        CLOUDY    37  28  70 W12       29.87R WCI  30
$$

IAZ004>006-015-016-023>025-035-036-071200-
   NORTH CENTRAL IOWA

CITY           SKY/WX    TMP DP  RH WIND       PRES   REMARKS
ALGONA *       CLEAR     34  28  80 W17       29.78S WCI  23
CLARION *      CLEAR     30  27  86 W16       29.80S WCI  19
ESTHERVILLE    CLEAR     32  26  78 W23       29.77S WCI  19
FORT DODGE *   CLEAR     34  25  69 W8        29.82S WCI  27
MASON CITY     CLEAR     33  27  78 W18       29.76F WCI  22
FOREST CITY *  CLEAR     32  28  86 W9        29.76S WCI  24
WEBSTER CITY * CLEAR     32  28  86 W14       29.80S WCI  22
IOWA FALLS *     N/A     32  28  86 SW17      29.81R WCI  21
$$

IAZ007>011-017>019-026>030-037>042-050>054-066-071200-
   NORTHEAST IOWA

CITY           SKY/WX    TMP DP  RH WIND       PRES   REMARKS
CEDAR RAPIDS   CLOUDY    36  30  79 SW10      29.81F WCI  28
CHARLES CITY * CLOUDY    34  32  93 W14       29.76S WCI  24
CLINTON *      CLOUDY    36  30  79 SW15      29.84F WCI  27
DECORAH *      PTCLDY    36  30  80 SW8G15    29.72F WCI  29
DUBUQUE        CLOUDY    35  29  78 SW20      29.78F WCI  24
MONTICELLO *   CLOUDY    36  30  80 S7        29.80F WCI  30
OELWEIN *      CLOUDY    36  30  80 SW13      29.77R WCI  27
WATERLOO       CLOUDY    35  28  75 SW13      29.78S WCI  26
$$

IAZ064-065-067-068-078-071200-
   EAST CENTRAL IOWA

CITY           SKY/WX    TMP DP  RH WIND       PRES   REMARKS
DAVENPORT      CLOUDY    38  28  67 SW15      29.85F WCI  29
IOWA CITY      PTCLDY    37  29  72 S9        29.85F WCI  30
MT. PLEASANT * CLOUDY    39  32  75 SW16G22   29.89F WCI  30
MUSCATINE *    CLEAR     39  28  65 SW13G18   29.87F WCI  32
QUAD CITIES    CLOUDY    39  28  64 SW14      29.86F WCI  31
$$

IAZ062-063-075>077-085>089-095>099-071200-
   SOUTHEAST IOWA

CITY           SKY/WX    TMP DP  RH WIND       PRES   REMARKS
BURLINGTON     CLOUDY    37  30  75 SW14      29.89F WCI  28
FAIRFIELD *    PTCLDY    37  28  70 SW13      29.86F WCI  29
FORT MADISON * CLEAR     37  30  75 SW14      29.91F WCI  29
KEOKUK *       CLEAR     39  30  70 SW15G22   29.91F WCI  31
OSKALOOSA *      N/A     36  28  75 SW16      29.84F WCI  26
CENTERVILLE *    N/A    N/A N/A N/A MISG        N/A
OTTUMWA        CLOUDY    38  28  67 SW15      29.85F WCI  29
WASHINGTON *   CLEAR     37  30  75 SW15      29.86F WCI  28
$$

ABBREVIATIONS USED IN REMARKS
   TC - TEMPERATURES IN CELSIUS
  WCI - WIND CHILL INDEX
   HX - HEAT INDEX
  VSB - VISIBILITY
$$





USA.gov is the U.S. government's official web portal to all federal, state and local government web resources and services.